Regional Weather Roundup
Issued by NWS

Home | Current Version | Previous Version | Graphics & Text | Print | Product List | Glossary On
Versions: 1 2 3 4 5 6 7 8 9 10 11 12 13 14 15 16 17 18 19 20 21 22 23 24 25 26 27
000
ASUS45 KCYS 100310
RWRWY

WYOMING REGIONAL WEATHER ROUNDUP
NATIONAL WEATHER SERVICE CHEYENNE WY
800 PM MST FRI DEC 09 2016

NOTE:  "FAIR" INDICATES FEW OR NO CLOUDS BELOW 12,000 FEET
WITH NO SIGNIFICANT WEATHER AND/OR OBSTRUCTIONS TO VISIBILITY.

WYZ001-100400-
YELLOWSTONE NATIONAL PARK

CITY           SKY/WX    TMP DP  RH WIND       PRES   REMARKS
LK YELLOWSTONE   N/A     25  22  88 W7        29.94S WCI  17
W YELLOWSTONE  NOT AVBL

$$
WYZ002>013-054>058-071-098>099-100400-
NORTHERN WYOMING

CITY           SKY/WX    TMP DP  RH WIND       PRES   REMARKS
JACKSON        LGT SNOW  28  27  93 SW10      29.98S WCI  19
CODY           CLOUDY    11   3  70 CALM      29.99F
GREYBULL       FAIR      12   3  67 SW5       30.05F WCI   4
WORLAND        FAIR      10   5  80 NW5       30.04S WCI   2
SHERIDAN       LGT SNOW  11   4  73 SE6       30.09F WCI   1
BUFFALO        CLOUDY     7   0  73 SE10      30.03F WCI  -8
GILLETTE       CLOUDY     8   3  80 E6        30.09F WCI  -2
HULETT         CLOUDY     1  -2  85 CALM      30.14F
NEWCASTLE      FAIR       5   0  78 S10       30.17S WCI -10

$$
WYZ014>020-022>026-101>103-100400-
CENTRAL WYOMING

CITY           SKY/WX    TMP DP  RH WIND       PRES   REMARKS
BIG PINEY      FAIR      13  11  92 E5        30.04F WCI   5
PINEDALE       CLOUDY    23  23 100 MISG      30.05S
DUBOIS         CLOUDY    30  23  74 NW14G21   29.90F WCI  20
LANDER         MOCLDY    14   7  73 CALM      29.95S
RIVERTON       FAIR      13   5  70 CALM      29.96F
CASPER         FAIR       1  -3  83 CALM      30.00F
DOUGLAS        MOCLDY    14   6  70 E10       30.04F WCI   1

$$
WYZ021-027>030-104>119-100400-
SOUTHERN WYOMING

CITY           SKY/WX    TMP DP  RH WIND       PRES   REMARKS
EVANSTON       CLOUDY    34  24  67 SW9       30.08F WCI  27
KEMMERER       FLURRIES  32  30  93 W8        30.07R WCI  25
FORT BRIDGER   CLOUDY    36  28  72 W12G17    30.09F WCI  28
ROCK SPRINGS   CLOUDY    34  27  75 W15       30.07S WCI  24
DIXON          CLOUDY    36  25  63 SW13G18   30.13F WCI  28
RAWLINS        CLOUDY    36  22  56 SW20G28   30.05F WCI  25
SARATOGA       CLOUDY    34  25  69 S8        30.09F WCI  27
LARAMIE        FAIR      32  23  69 S13       30.05R WCI  22
CHEYENNE       FAIR      27  23  85 SW16      30.08S WCI  15
TORRINGTON     CLOUDY    15   6  67 E10       30.13F WCI   2
PINE BLUFFS    MOCLDY    21  16  79 S6        30.12S WCI  14

$$




USA.gov is the U.S. government's official web portal to all federal, state and local government web resources and services.